Naples, FL

10:04 AM EST on January 22, 2018 (GMT -0500)
Naples Municipal

Weather History for KAPF - December, 2011

Change the Weather History Date:

Wednesday, December 28, 2011

  Actual Average Record
Temperature  
Mean Temperature 58 °F 65 °F  
Max Temperature 67 °F 75 °F 88 °F (1990)
Min Temperature 49 °F 55 °F 33 °F (1977)
Degree Days  
Heating Degree Days 7 3  
Month to date heating degree days 15 52  
Since 1 July heating degree days 17 66  
Cooling Degree Days 0 3  
Month to date cooling degree days 163 113  
Year to date cooling degree days 4281 3932  
Growing Degree Days 8 (Base 50)    
Moisture  
Dew Point 46 °F    
Average Humidity 54    
Maximum Humidity 77    
Minimum Humidity 31    
Precipitation  
Precipitation 0.00 in 0.04 in 2.23 in (1978)
Month to date precipitation 0.44 1.34  
Year to date precipitation 38.19 51.78  
Snow  
Snow 0.00 in - - ()
Month to date snowfall 0.0  
Since 1 July snowfall 0.0  
Snow Depth 0.00 in    
Sea Level Pressure  
Sea Level Pressure 30.11 in    
Wind  
Wind Speed 7 mph (North)    
Max Wind Speed 17 mph    
Max Gust Speed 23 mph    
Visibility 10 miles    
Events      
T = Trace of Precipitation, MM = Missing Value Source: NWS Daily Summary

Daily Weather History Graph

Daily Weather History Graph

Search for Another Location

Airport or City:

Trip Planner

Search our weather history database for the weather conditions in past years. The results will help you decide how hot, cold, wet, or windy it might be!

Date:

Astronomy

Dec. 28, 2011 Rise Set
Actual Time 7:13 AM EST 5:44 PM EST
Civil Twilight 6:47 AM EST 6:09 PM EST
Nautical Twilight 6:19 AM EST 6:38 PM EST
Astronomical Twilight 5:50 AM EST 7:06 PM EST
Moon 10:01 AM EST (12/28) 9:53 PM EST (12/28)
Length of Visible Light 11h 21m
Length of Day
10h 30m
Waxing Crescent, 18% of the Moon is Illuminated
Dec 28
Waxing Crescent
Jan 1
First Quarter
Jan 9
Full
Jan 16
Last Quarter
Jan 23
New

Hourly Weather History & Observations

Time (EST) Temp. Dew Point Humidity Pressure Visibility Wind Dir Wind Speed Gust Speed Precip Events Conditions
12:14 AM 66.2 °F 57.2 °F 73% 30.08 in 10.0 mi NW 10.4 mph 19.6 mph N/A   Scattered Clouds
12:53 AM 66.0 °F 55.9 °F 70% 30.08 in 10.0 mi NW 12.7 mph 21.9 mph N/A   Scattered Clouds
1:04 AM 66.2 °F 55.4 °F 68% 30.08 in 10.0 mi NW 10.4 mph - N/A   Mostly Cloudy
1:16 AM 66.2 °F 55.4 °F 68% 30.08 in 10.0 mi NW 10.4 mph 20.7 mph N/A   Mostly Cloudy
1:53 AM 66.0 °F 54.0 °F 65% 30.08 in 10.0 mi NW 8.1 mph 17.3 mph N/A   Mostly Cloudy
2:53 AM 64.9 °F 53.1 °F 65% 30.07 in 10.0 mi NW 8.1 mph - N/A   Clear
3:53 AM 64.9 °F 53.1 °F 65% 30.07 in 10.0 mi NW 8.1 mph 17.3 mph N/A   Mostly Cloudy
4:53 AM 64.0 °F 53.1 °F 67% 30.08 in 10.0 mi NNW 9.2 mph - N/A   Overcast
5:53 AM 62.1 °F 52.0 °F 70% 30.11 in 10.0 mi North 6.9 mph 16.1 mph N/A   Overcast
6:53 AM 59.0 °F 51.1 °F 75% 30.13 in 10.0 mi NNE 11.5 mph - N/A   Mostly Cloudy
7:53 AM 55.9 °F 48.0 °F 75% 30.16 in 10.0 mi NNE 13.8 mph 19.6 mph N/A   Scattered Clouds
8:53 AM 57.0 °F 45.0 °F 64% 30.19 in 10.0 mi North 9.2 mph 18.4 mph N/A   Partly Cloudy
9:53 AM 57.9 °F 46.0 °F 65% 30.20 in 10.0 mi NE 12.7 mph - N/A   Partly Cloudy
10:53 AM 59.0 °F 43.0 °F 55% 30.18 in 10.0 mi NNE 11.5 mph - N/A   Clear
11:53 AM 61.0 °F 39.9 °F 46% 30.15 in 10.0 mi NE 8.1 mph - N/A   Clear
12:53 PM 64.0 °F 39.0 °F 40% 30.12 in 10.0 mi NE 8.1 mph - N/A   Clear
1:53 PM 64.9 °F 34.0 °F 32% 30.09 in 10.0 mi NNE 8.1 mph - N/A   Clear
2:53 PM 66.9 °F 37.0 °F 33% 30.10 in 10.0 mi North 5.8 mph - N/A   Clear
3:53 PM 66.0 °F 37.0 °F 34% 30.09 in 10.0 mi Variable 3.5 mph - N/A   Clear
4:53 PM 64.0 °F 37.9 °F 38% 30.09 in 10.0 mi NE 3.5 mph - N/A   Clear
5:53 PM 61.0 °F 39.9 °F 46% 30.09 in 10.0 mi East 3.5 mph - N/A   Clear
6:53 PM 57.0 °F 46.0 °F 67% 30.12 in 10.0 mi Calm Calm - N/A   Clear
7:53 PM 55.9 °F 44.1 °F 64% 30.12 in 10.0 mi Calm Calm - N/A   Clear
8:53 PM 53.1 °F 46.0 °F 77% 30.13 in 10.0 mi Calm Calm - N/A   Clear
9:53 PM 52.0 °F 43.0 °F 71% 30.14 in 10.0 mi NE 3.5 mph - N/A   Clear
10:53 PM 50.0 °F 42.1 °F 74% 30.14 in 10.0 mi NE 4.6 mph - N/A   Clear
11:53 PM 50.0 °F 41.0 °F 71% 30.13 in 10.0 mi NE 3.5 mph - N/A   Clear